Location: Unspecified
(0.0000°N, 0.0000°E)
Time: 17:24:02
(UTC+00:00)

Explorer 7 - All Passes

Search period start: 18 June 2019 00:00
Search period end: 28 June 2019 00:00
Orbit: 485 x 680 km, 50.3° (Epoch: 18 June)

Date Brightness Start Highest point End Pass type
(mag) Time Alt. Az. Time Alt. Az. Time Alt. Az.
18 Jun - 06:32:25 10° S 06:35:44 26° SE 06:39:10 10° ENE daylight
18 Jun - 08:13:40 10° W 08:16:05 15° NW 08:18:36 10° NNW daylight
18 Jun - 18:34:15 10° NNW 18:38:50 46° NE 18:43:14 10° SE visible
18 Jun - 20:17:12 10° W 20:19:13 13° SW 20:21:12 10° SSW visible
19 Jun - 06:36:55 10° SSW 06:40:44 61° SE 06:44:44 10° NE daylight
19 Jun - 18:39:04 10° NW 18:43:53 85° SW 18:48:27 10° SE visible
20 Jun - 06:41:58 10° SW 06:45:45 55° NW 06:49:43 10° NNE daylight
20 Jun - 17:05:33 10° NNE 17:08:22 15° NE 17:11:09 10° E daylight
20 Jun - 18:44:23 10° WNW 18:48:53 41° SW 18:53:12 10° SSE visible
21 Jun - 05:08:10 10° SSE 05:10:32 16° SE 05:12:56 10° E visible
21 Jun - 06:47:38 10° WSW 06:50:50 24° NW 06:54:08 10° N daylight
21 Jun - 17:09:15 10° N 17:13:28 29° NE 17:17:35 10° ESE daylight
21 Jun - 18:50:21 10° WNW 18:53:54 21° SW 18:57:21 10° S visible
22 Jun - 05:12:05 10° SSW 05:15:33 34° SE 05:19:08 10° ENE visible
22 Jun - 06:54:38 10° WNW 06:55:57 11° NW 06:57:15 10° NNW daylight
22 Jun - 17:13:44 10° NNW 17:18:32 60° NE 17:23:10 10° SE daylight
22 Jun - 18:58:16 10° WSW 18:58:57 10° SW 18:59:37 10° SW visible
23 Jun - 05:16:47 10° SW 05:20:33 83° SE 05:24:30 10° NE visible
23 Jun - 17:18:43 10° NW 17:23:33 67° SW 17:28:13 10° SSE daylight
24 Jun - 05:22:01 10° WSW 05:25:36 40° NW 05:29:18 10° NNE visible
24 Jun - 15:44:35 10° N 15:48:05 20° NE 15:51:32 10° E daylight
24 Jun - 17:24:13 10° WNW 17:28:34 33° SW 17:32:48 10° S daylight
25 Jun - 03:47:34 10° S 03:50:22 20° SE 03:53:12 10° ENE visible
25 Jun - 05:28:00 10° W 05:30:40 18° NW 05:33:24 10° N visible
25 Jun - 15:48:38 10° NNW 15:53:10 37° NE 15:57:35 10° ESE daylight
25 Jun - 17:30:27 10° W 17:33:36 17° SW 17:36:41 10° SSW daylight
26 Jun - 03:51:47 10° SSW 03:55:23 44° SE 03:59:04 10° NE visible
26 Jun - 15:53:18 10° NNW 15:58:11 76° NE 16:02:59 10° SE daylight
27 Jun - 03:56:40 10° SW 04:00:24 73° NW 04:04:14 10° NNE visible
27 Jun - 14:20:34 10° NNE 14:22:41 13° NE 14:24:47 10° ENE daylight
27 Jun - 15:58:26 10° NW 16:03:13 53° SW 16:07:54 10° SSE daylight
